sat.trackr.live / text

‹ back to catalog

STARLINK-36832

NORAD 68805 · 2026-089D

PAYLOAD ACTIVE UNKNOWN

§ Identity

Operator
Country
US
Launch date
2026-04-23
Launch site
AFWTR
Launch vehicle
Mass (kg)
RCS (m²)

Purposes: comms

External: N2YO · Heavens-Above · Gunter

§ Orbital elements

Epoch: 2026-05-25T04:00:03.998880Z

Period
91.42 min
Inclination
97.2851°
Eccentricity
0.0001343
Mean motion
15.75226702 rev/d
Perigee alt
343.1 km
Apogee alt
344.9 km
Semi-major
6,722.1 km
B*
-6.8733e-4
RAAN
351.8065°
Arg perigee
89.2414°
Mean anomaly
181.4753°
Rev number
609

§ Raw data

STARLINK-368321 68805U 26089D   26145.16671295 -.00101602  00000+0 -68733-3 0  99982 68805  97.2851 351.8065 0001343  89.2414 181.4753 15.75226702  6099

JSON: /api/v1/satellites/68805 · /tle

For live sub-satellite position, see the globe view (requires WebGL).

§ Visibility from observer

Set your observer location to see the next 7 days of passes ≥ 10°. The values pass through the URL so the page stays shareable.

No JS? Fill the form by hand. The geolocation button needs JavaScript.